SEH3DF LGSR-LGSA

Flight info

Callsign SEH3DF
Flight time 0h 32m
Altitude 15000
Route GIVIS Y145 IRA/N0346F140 N1 BAVES
Aircraft A21N/M-SDE2E3FGHIRWXY/LB1

Departure

Time 2026-04-29 15:04
Airport Santorini International Airport (LGSR)

Arrival

Time 2026-04-29 15:36
Airport Chania International Airport (LGSA)
Time Latitude Longitude Altitude Speed Heading
2026-04-29 14:20 36.40383 25.47365 96 ft 0 kts 249°
2026-04-29 14:21 36.40383 25.47366 96 ft 0 kts 249°
2026-04-29 14:36 36.40383 25.47367 96 ft 0 kts 249°
2026-04-29 14:49 36.40383 25.47368 96 ft 0 kts 249°
2026-04-29 14:52 36.40393 25.47392 96 ft 4 kts 227°
2026-04-29 14:52 36.40414 25.47408 96 ft 4 kts 183°
2026-04-29 14:52 36.40429 25.47406 96 ft 1 kts 159°
2026-04-29 14:53 36.40429 25.47405 96 ft 0 kts 159°
2026-04-29 14:57 36.40428 25.47406 96 ft 1 kts 159°
2026-04-29 14:58 36.40417 25.47417 96 ft 3 kts 128°
2026-04-29 14:58 36.40420 25.47452 97 ft 5 kts 73°
2026-04-29 14:58 36.40421 25.47504 98 ft 7 kts 120°
2026-04-29 14:58 36.40370 25.47533 97 ft 9 kts 159°
2026-04-29 14:59 36.40305 25.47564 96 ft 11 kts 159°
2026-04-29 14:59 36.40227 25.47601 95 ft 13 kts 159°
2026-04-29 14:59 36.40139 25.47642 96 ft 14 kts 159°
2026-04-29 14:59 36.40040 25.47689 93 ft 16 kts 159°
2026-04-29 15:00 36.39933 25.47740 92 ft 17 kts 159°
2026-04-29 15:00 36.39818 25.47794 90 ft 18 kts 159°
2026-04-29 15:00 36.39694 25.47852 87 ft 19 kts 159°
2026-04-29 15:00 36.39565 25.47913 84 ft 20 kts 159°
2026-04-29 15:01 36.39431 25.47976 70 ft 21 kts 159°
2026-04-29 15:01 36.39293 25.48041 70 ft 22 kts 159°
2026-04-29 15:01 36.39149 25.48109 66 ft 23 kts 159°
2026-04-29 15:01 36.39041 25.48161 57 ft 10 kts 159°
2026-04-29 15:02 36.39005 25.48224 58 ft 11 kts 69°
2026-04-29 15:02 36.39036 25.48314 58 ft 6 kts 58°
2026-04-29 15:02 36.39076 25.48312 60 ft 0 kts 339°
2026-04-29 15:03 36.39099 25.48301 64 ft 10 kts 339°
2026-04-29 15:03 36.39398 25.48162 69 ft 93 kts 341°
2026-04-29 15:03 36.40279 25.47744 137 ft 167 kts 339°
2026-04-29 15:04 36.41421 25.47214 865 ft 182 kts 339°
2026-04-29 15:04 36.42613 25.46736 1859 ft 181 kts 347°
2026-04-29 15:04 36.43870 25.46366 2721 ft 192 kts 347°
2026-04-29 15:04 36.45210 25.46005 3535 ft 201 kts 349°
2026-04-29 15:05 36.46588 25.45739 4368 ft 197 kts 352°
2026-04-29 15:05 36.47922 25.45306 4917 ft 208 kts 340°
2026-04-29 15:05 36.49339 25.44620 5316 ft 224 kts 340°
2026-04-29 15:05 36.50874 25.44155 5871 ft 231 kts 352°
2026-04-29 15:06 36.52492 25.43850 6468 ft 235 kts 346°
2026-04-29 15:06 36.53890 25.42858 7161 ft 233 kts 313°
2026-04-29 15:06 36.54677 25.41084 7679 ft 245 kts 287°
2026-04-29 15:06 36.54626 25.38923 8050 ft 262 kts 251°
2026-04-29 15:07 36.53737 25.36934 8651 ft 263 kts 238°
2026-04-29 15:07 36.52643 25.35077 9215 ft 268 kts 233°
2026-04-29 15:07 36.51381 25.33377 9765 ft 272 kts 226°
2026-04-29 15:07 36.49944 25.31817 10289 ft 275 kts 220°
2026-04-29 15:08 36.48366 25.30449 10823 ft 277 kts 214°
2026-04-29 15:08 36.46679 25.29311 11333 ft 280 kts 207°
2026-04-29 15:08 36.44859 25.28400 11841 ft 283 kts 200°
2026-04-29 15:08 36.42960 25.27761 12341 ft 285 kts 193°
2026-04-29 15:09 36.40966 25.27398 12879 ft 289 kts 186°
2026-04-29 15:09 36.38962 25.27334 13662 ft 293 kts 180°
2026-04-29 15:09 36.36914 25.27566 14435 ft 296 kts 173°
2026-04-29 15:09 36.34881 25.28113 15166 ft 300 kts 166°
2026-04-29 15:10 36.32892 25.28984 15885 ft 304 kts 158°
2026-04-29 15:10 36.31003 25.30157 16587 ft 309 kts 150°
2026-04-29 15:10 36.29209 25.31652 17285 ft 313 kts 143°
2026-04-29 15:10 36.27552 25.33460 17982 ft 318 kts 135°
2026-04-29 15:11 36.26100 25.35517 18612 ft 322 kts 127°
2026-04-29 15:11 36.24851 25.37847 19213 ft 326 kts 120°
2026-04-29 15:11 36.24298 25.39038 19511 ft 327 kts 121°
2026-04-29 15:11 36.23173 25.40954 19949 ft 330 kts 137°
2026-04-29 15:12 36.21260 25.42490 20506 ft 328 kts 163°
2026-04-29 15:12 36.19792 25.42894 20828 ft 325 kts 180°
2026-04-29 15:12 36.16743 25.42320 20759 ft 352 kts 200°
2026-04-29 15:12 36.14304 25.41379 20577 ft 381 kts 200°
2026-04-29 15:13 36.11716 25.40464 20756 ft 394 kts 198°
2026-04-29 15:13 36.09103 25.39367 21048 ft 398 kts 209°
2026-04-29 15:13 36.06861 25.37423 21095 ft 390 kts 227°
2026-04-29 15:13 36.05254 25.34780 21096 ft 384 kts 243°
2026-04-29 15:14 36.04011 25.31850 21090 ft 383 kts 245°
2026-04-29 15:14 36.02790 25.28920 21077 ft 383 kts 245°
2026-04-29 15:14 36.01538 25.26005 21074 ft 383 kts 244°
2026-04-29 15:14 36.00277 25.23146 21073 ft 383 kts 244°
2026-04-29 15:15 35.98979 25.20256 21068 ft 383 kts 243°
2026-04-29 15:15 35.97678 25.17369 21074 ft 383 kts 243°
2026-04-29 15:15 35.96258 25.14569 21067 ft 387 kts 233°
2026-04-29 15:15 35.94292 25.12344 21070 ft 392 kts 218°
2026-04-29 15:16 35.91979 25.10542 21083 ft 394 kts 214°
2026-04-29 15:16 35.89624 25.08800 21072 ft 394 kts 214°
2026-04-29 15:16 35.87264 25.07034 21075 ft 393 kts 215°
2026-04-29 15:16 35.84965 25.05285 21076 ft 393 kts 215°
2026-04-29 15:17 35.82637 25.03497 21078 ft 393 kts 215°
2026-04-29 15:17 35.80318 25.01712 21077 ft 393 kts 215°
2026-04-29 15:17 35.77993 24.99920 21076 ft 393 kts 215°
2026-04-29 15:17 35.75785 24.97948 21072 ft 388 kts 227°
2026-04-29 15:18 35.74173 24.95374 21073 ft 383 kts 244°
2026-04-29 15:18 35.73151 24.92361 21083 ft 380 kts 253°
2026-04-29 15:18 35.72335 24.89269 21014 ft 374 kts 255°
2026-04-29 15:18 35.71538 24.86210 20676 ft 373 kts 254°
2026-04-29 15:19 35.70732 24.83187 20221 ft 370 kts 253°
2026-04-29 15:19 35.69918 24.80198 19739 ft 368 kts 253°
2026-04-29 15:19 35.69104 24.77255 19262 ft 366 kts 253°
2026-04-29 15:19 35.68279 24.74286 18785 ft 366 kts 253°
2026-04-29 15:20 35.67454 24.71323 18329 ft 365 kts 253°
2026-04-29 15:20 35.66629 24.68369 17833 ft 365 kts 253°
2026-04-29 15:20 35.65811 24.65446 17352 ft 365 kts 253°
2026-04-29 15:20 35.64987 24.62493 16861 ft 365 kts 253°
2026-04-29 15:21 35.64166 24.59539 16408 ft 364 kts 253°
2026-04-29 15:21 35.63343 24.56597 15959 ft 363 kts 253°
2026-04-29 15:21 35.62518 24.53650 15526 ft 363 kts 253°
2026-04-29 15:21 35.61695 24.50717 15085 ft 362 kts 253°
2026-04-29 15:22 35.60874 24.47801 14657 ft 361 kts 252°
2026-04-29 15:22 35.60049 24.44880 14227 ft 361 kts 252°
2026-04-29 15:22 35.59238 24.42002 13760 ft 361 kts 252°
2026-04-29 15:22 35.58414 24.39075 13260 ft 361 kts 252°
2026-04-29 15:23 35.57586 24.36159 12793 ft 360 kts 252°
2026-04-29 15:23 35.56764 24.33259 12359 ft 358 kts 252°
2026-04-29 15:23 35.55956 24.30403 11917 ft 358 kts 252°
2026-04-29 15:23 35.55138 24.27518 11467 ft 357 kts 252°
2026-04-29 15:24 35.54320 24.24643 11065 ft 354 kts 252°
2026-04-29 15:24 35.53519 24.21827 10807 ft 342 kts 253°
2026-04-29 15:24 35.53200 24.19010 10592 ft 326 kts 276°
2026-04-29 15:24 35.53823 24.16425 10427 ft 310 kts 301°
2026-04-29 15:25 35.55160 24.14473 10289 ft 296 kts 320°
2026-04-29 15:25 35.56776 24.12976 10143 ft 286 kts 324°
2026-04-29 15:25 35.58385 24.11550 9750 ft 284 kts 324°
2026-04-29 15:25 35.59978 24.10110 9311 ft 284 kts 323°
2026-04-29 15:26 35.61562 24.08655 8910 ft 283 kts 323°
2026-04-29 15:26 35.63130 24.07200 8541 ft 280 kts 323°
2026-04-29 15:26 35.64658 24.05769 8199 ft 278 kts 323°
2026-04-29 15:26 35.66198 24.04318 7876 ft 278 kts 322°
2026-04-29 15:27 35.67732 24.02865 7578 ft 277 kts 322°
2026-04-29 15:27 35.69248 24.01427 7261 ft 278 kts 322°
2026-04-29 15:27 35.70784 23.99969 6933 ft 277 kts 323°
2026-04-29 15:27 35.72303 23.98523 6606 ft 274 kts 322°
2026-04-29 15:28 35.73606 23.96863 6265 ft 273 kts 302°
2026-04-29 15:28 35.74111 23.95416 6033 ft 273 kts 284°
2026-04-29 15:28 35.73927 23.92380 5625 ft 273 kts 248°
2026-04-29 15:28 35.72905 23.90431 5336 ft 272 kts 225°
2026-04-29 15:29 35.71458 23.88920 5063 ft 271 kts 218°
2026-04-29 15:29 35.68344 23.86288 4441 ft 271 kts 211°
2026-04-29 15:30 35.65013 23.84286 4079 ft 260 kts 189°
2026-04-29 15:30 35.63279 23.84365 4076 ft 241 kts 164°
2026-04-29 15:30 35.61780 23.85226 4092 ft 237 kts 142°
2026-04-29 15:30 35.60701 23.86642 4090 ft 221 kts 121°
2026-04-29 15:31 35.60035 23.88284 4099 ft 212 kts 107°
2026-04-29 15:31 35.59691 23.89931 4134 ft 186 kts 101°
2026-04-29 15:31 35.59412 23.91492 4080 ft 186 kts 102°
2026-04-29 15:31 35.59116 23.93040 3786 ft 182 kts 103°
2026-04-29 15:32 35.58832 23.94490 3637 ft 169 kts 102°
2026-04-29 15:32 35.58568 23.95849 3367 ft 159 kts 102°
2026-04-29 15:32 35.58307 23.97171 2963 ft 157 kts 103°
2026-04-29 15:32 35.58049 23.98466 2581 ft 155 kts 103°
2026-04-29 15:33 35.57792 23.99755 2341 ft 155 kts 103°
2026-04-29 15:33 35.57540 24.01033 2345 ft 155 kts 103°
2026-04-29 15:33 35.57279 24.02327 2325 ft 155 kts 104°
2026-04-29 15:33 35.56885 24.03561 2136 ft 155 kts 113°
2026-04-29 15:34 35.56484 24.04737 1932 ft 141 kts 112°
2026-04-29 15:34 35.56119 24.05838 1729 ft 138 kts 112°
2026-04-29 15:34 35.55879 24.06573 1619 ft 138 kts 111°
2026-04-29 15:34 35.55523 24.07659 1447 ft 139 kts 112°
2026-04-29 15:35 35.55159 24.08761 1271 ft 139 kts 111°
2026-04-29 15:35 35.54800 24.09861 1089 ft 138 kts 111°
2026-04-29 15:35 35.54448 24.10939 906 ft 138 kts 112°
2026-04-29 15:35 35.54107 24.12043 748 ft 138 kts 110°
2026-04-29 15:36 35.53773 24.13141 559 ft 137 kts 111°
2026-04-29 15:36 35.53436 24.14168 504 ft 115 kts 112°
2026-04-29 15:36 35.53215 24.14844 495 ft 56 kts 111°
2026-04-29 15:36 35.53110 24.15166 492 ft 38 kts 112°
2026-04-29 15:37 35.53009 24.15472 495 ft 39 kts 112°
2026-04-29 15:37 35.52909 24.15779 500 ft 32 kts 111°
2026-04-29 15:37 35.52883 24.15917 501 ft 6 kts 62°
2026-04-29 15:37 35.52914 24.15946 502 ft 5 kts 23°
2026-04-29 15:38 35.52953 24.15967 502 ft 8 kts 23°
2026-04-29 15:38 35.53011 24.15989 503 ft 10 kts 330°
2026-04-29 15:38 35.53049 24.15908 503 ft 12 kts 289°
2026-04-29 15:38 35.53087 24.15802 503 ft 14 kts 294°
2026-04-29 15:39 35.53128 24.15682 502 ft 16 kts 291°
2026-04-29 15:39 35.53172 24.15544 502 ft 18 kts 291°
2026-04-29 15:39 35.53219 24.15392 502 ft 20 kts 291°
2026-04-29 15:39 35.53271 24.15228 502 ft 21 kts 291°
2026-04-29 15:40 35.53329 24.15051 502 ft 23 kts 291°
2026-04-29 15:40 35.53390 24.14863 502 ft 25 kts 291°
2026-04-29 15:40 35.53455 24.14660 502 ft 26 kts 291°
2026-04-29 15:40 35.53509 24.14494 503 ft 11 kts 291°
2026-04-29 15:41 35.53540 24.14399 503 ft 13 kts 291°
2026-04-29 15:41 35.53591 24.14341 503 ft 10 kts
2026-04-29 15:41 35.53663 24.14366 503 ft 10 kts 356°
2026-04-29 15:41 35.53704 24.14287 503 ft 12 kts 292°
2026-04-29 15:42 35.53739 24.14182 503 ft 14 kts 292°
2026-04-29 15:42 35.53762 24.14109 503 ft 3 kts 291°
2026-04-29 15:42 35.53764 24.14104 503 ft 0 kts 291°
2026-04-29 15:42 35.53777 24.14079 503 ft 6 kts 332°
2026-04-29 15:43 35.53824 24.14092 503 ft 8 kts 23°
2026-04-29 15:43 35.53848 24.14104 503 ft 0 kts 22°